FW1970 Weather Reports


Display with metric or nautical units.
time (UTC)temp
F
wind
direction
speed
MPH
gust
MPH
rain 1hr
in
rain 24hr
in
rain mn
in
humidity
%
barometer
mb
20260504183032 69 173 8.0 26.0 0.00 0.00 0.00 34 1007.0
20260504181525 69 205 11.0 22.0 0.00 0.00 0.00 35 1007.3
20260504180025 69 237 10.0 23.0 0.00 0.00 0.00 34 1007.5
20260504174523 68 178 5.0 19.0 0.00 0.00 0.00 35 1007.6
20260504173020 68 170 7.0 15.0 0.00 0.00 0.00 34 1007.7
20260504171517 68 264 6.0 16.0 0.00 0.00 0.00 35 1007.9
20260504081544 48 155 0.0 3.0 0.00 0.00 0.00 45 1011.4
20260504044555 49 218 0.0 4.0 0.00 0.00 0.00 40 1013.3
20260504043058 49 218 3.0 6.0 0.00 0.00 0.00 39 1013.2
20260504041551 49 238 3.0 8.0 0.00 0.00 0.00 38 1013.2
20260504040049 50 264 3.0 7.0 0.00 0.00 0.00 37 1013.1
20260504034551 50 223 3.0 7.0 0.00 0.00 0.00 37 1013.1
20260504033047 50 207 3.0 8.0 0.00 0.00 0.00 37 1013.0
20260504031548 50 205 1.0 7.0 0.00 0.00 0.00 37 1013.2
20260504030044 50 213 2.0 5.0 0.00 0.00 0.00 37 1013.3
20260504024545 51 213 1.0 6.0 0.00 0.00 0.00 36 1013.4
20260504023043 51 215 3.0 6.0 0.00 0.00 0.00 36 1013.4
20260504021542 52 219 3.0 6.0 0.00 0.00 0.00 34 1013.6
20260504020124 52 219 4.0 6.0 0.00 0.00 0.00 34 1013.4
20260504014555 52 219 3.0 5.0 0.00 0.00 0.00 34 1013.4
20260504013050 52 219 2.0 4.0 0.00 0.00 0.00 33 1013.4
20260504011540 53 219 2.0 4.0 0.00 0.00 0.00 32 1013.4
20260504010044 54 219 3.0 6.0 0.00 0.00 0.00 31 1013.4
20260504004600 54 217 4.0 7.0 0.00 0.00 0.00 30 1013.4
20260504003047 54 221 3.0 8.0 0.00 0.00 0.00 30 1013.4
20260504001607 55 232 4.0 10.0 0.00 0.00 0.00 29 1013.3
20260504000041 55 234 5.0 13.0 0.00 0.00 0.00 29 1013.3
20260503234536 56 266 7.0 18.0 0.00 0.00 0.00 28 1013.3
20260503233040 56 225 9.0 20.0 0.00 0.00 0.00 26 1013.4
20260503231534 56 217 9.0 15.0 0.00 0.00 0.00 26 1013.4
20260503230036 57 235 12.0 23.0 0.00 0.00 0.00 25 1013.6
20260503224533 57 360 10.0 19.0 0.00 0.00 0.00 25 1013.5
20260503223032 57 211 10.0 16.0 0.00 0.00 0.00 26 1013.5
20260503221532 57 233 12.0 20.0 0.00 0.00 0.00 25 1013.9
20260503220041 58 238 12.0 19.0 0.00 0.00 0.00 24 1013.8
20260503214531 57 221 11.0 19.0 0.00 0.00 0.00 25 1013.7
20260503213031 58 286 12.0 20.0 0.00 0.00 0.00 24 1013.5
20260503211529 57 265 10.0 19.0 0.00 0.00 0.00 26 1013.5
20260503210027 57 262 8.0 18.0 0.00 0.00 0.00 26 1013.6
20260503204526 57 242 11.0 18.0 0.00 0.00 0.00 26 1014.1
20260503203042 57 269 12.0 17.0 0.00 0.00 0.00 24 1014.1
20260503201526 56 217 7.0 16.0 0.00 0.00 0.00 28 1014.4
20260503200023 58 207 10.0 17.0 0.00 0.00 0.00 26 1014.5
20260503194534 57 256 11.0 17.0 0.00 0.00 0.00 26 1014.7
20260503193021 57 243 14.0 19.0 0.00 0.00 0.00 24 1014.8
20260503191517 57 360 15.0 21.0 0.00 0.00 0.00 25 1015.1
20260503190023 56 277 12.0 20.0 0.00 0.00 0.00 27 1015.4
20260503184522 57 280 10.0 21.0 0.00 0.00 0.00 26 1015.5